Gainesville, GA

11:50 PM EST on December 03, 2016 (GMT -0500)
Gilmer Memorial

Weather History for KGVL - July, 2013

Change the Weather History Date:

Tuesday, July 16, 2013

  Actual Average Record
Temperature  
Mean Temperature 79 °F 79 °F  
Max Temperature 87 °F 88 °F 99 °F (1988)
Min Temperature 71 °F 70 °F 52 °F (1967)
Cooling Degree Days 14 14  
Month to date cooling degree days 171 220  
Year to date cooling degree days 636 716  
Since 1 June cooling degree days 491 541  
Growing Degree Days 29 (Base 50)    
Moisture  
Dew Point 68 °F    
Average Humidity 72    
Maximum Humidity 93    
Minimum Humidity 50    
Precipitation  
Precipitation 0.00 in 0.12 in 2.45 in (1936)
Month to date precipitation 6.69 2.39  
Year to date precipitation 27.99 29.70  
Sea Level Pressure  
Sea Level Pressure 30.31 in    
Wind  
Wind Speed 5 mph (ENE)    
Max Wind Speed 10 mph    
Max Gust Speed 15 mph    
Visibility 10 miles    
Events      
T = Trace of Precipitation, MM = Missing Value Source: NWS Daily Summary

Daily Weather History Graph

Daily Weather History Graph

Search for Another Location

Airport or City:

Trip Planner

Search our weather history database for the weather conditions in past years. The results will help you decide how hot, cold, wet, or windy it might be!

Date:

Astronomy

Jul. 16, 2013 Rise Set
Actual Time 6:35 AM EDT 8:47 PM EDT
Civil Twilight 6:06 AM EDT 9:15 PM EDT
Nautical Twilight 5:31 AM EDT 9:50 PM EDT
Astronomical Twilight 4:54 AM EDT 10:28 PM EDT
Moon 2:33 PM EDT (7/16) 12:56 AM EDT (7/16)
Length of Visible Light 15h 09m
Length of Day
14h 11m
First Quarter, 56% of the Moon is Illuminated
Jul 16
First Quarter
Jul 22
Full
Jul 29
Last Quarter
Aug 6
New
Aug 14
First Quarter

Hourly Weather History & Observations

Time (EDT) Temp. Heat Index Dew Point Humidity Pressure Visibility Wind Dir Wind Speed Gust Speed Precip Events Conditions
12:53 AM 73.0 °F - 69.1 °F 87% 30.30 in 10.0 mi ENE 3.5 mph - N/A   Clear
1:53 AM 73.0 °F - 70.0 °F 90% 30.30 in 10.0 mi NE 4.6 mph - N/A   Mostly Cloudy
2:53 AM 72.0 °F - 69.1 °F 91% 30.30 in 10.0 mi ENE 6.9 mph - N/A   Partly Cloudy
3:53 AM 71.1 °F - 69.1 °F 93% 30.29 in 10.0 mi ENE 5.8 mph - N/A   Clear
4:53 AM 71.1 °F - 68.0 °F 90% 30.29 in 10.0 mi ENE 4.6 mph - N/A   Clear
5:53 AM 71.1 °F - 68.0 °F 90% 30.30 in 10.0 mi ENE 4.6 mph - N/A   Scattered Clouds
6:03 AM 71.6 °F - 69.8 °F 94% 30.34 in 10.0 mi ENE 3.5 mph - N/A   Mostly Cloudy
6:30 AM 71.6 °F - 68.0 °F 88% 30.34 in 10.0 mi ENE 4.6 mph - N/A   Scattered Clouds
6:40 AM 71.6 °F - 68.0 °F 88% 30.35 in 10.0 mi ENE 4.6 mph - N/A   Mostly Cloudy
6:49 AM 71.6 °F - 69.8 °F 94% 30.35 in 10.0 mi ENE 5.8 mph - N/A   Mostly Cloudy
6:53 AM 71.1 °F - 69.1 °F 93% 30.30 in 10.0 mi ENE 5.8 mph - N/A   Overcast
7:53 AM 72.0 °F - 69.1 °F 91% 30.32 in 6.0 mi NNE 4.6 mph - N/A   Overcast
8:53 AM 73.9 °F - 70.0 °F 87% 30.34 in 10.0 mi East 6.9 mph - N/A   Overcast
9:32 AM 75.2 °F - 69.8 °F 83% 30.38 in 10.0 mi East 5.8 mph - N/A   Mostly Cloudy
9:42 AM 77.0 °F - 69.8 °F 78% 30.38 in 10.0 mi East 5.8 mph - N/A   Scattered Clouds
9:53 AM 78.1 °F - 70.0 °F 76% 30.33 in 10.0 mi ENE 5.8 mph - N/A   Scattered Clouds
10:53 AM 80.1 °F 82.3 °F 66.9 °F 64% 30.33 in 10.0 mi East 9.2 mph - N/A   Partly Cloudy
11:53 AM 81.0 °F 83.8 °F 68.0 °F 65% 30.32 in 10.0 mi East 9.2 mph - N/A   Partly Cloudy
12:53 PM 84.0 °F 86.5 °F 66.9 °F 56% 30.32 in 10.0 mi Variable 6.9 mph - N/A   Partly Cloudy
1:53 PM 84.9 °F 87.6 °F 66.9 °F 55% 30.30 in 10.0 mi East 5.8 mph - N/A   Partly Cloudy
2:53 PM 84.0 °F 86.3 °F 66.0 °F 55% 30.28 in 10.0 mi Variable 4.6 mph - N/A   Scattered Clouds
3:53 PM 86.0 °F 88.8 °F 66.9 °F 53% 30.27 in 10.0 mi Variable 5.8 mph - N/A   Clear
4:53 PM 87.1 °F 89.2 °F 66.0 °F 49% 30.26 in 10.0 mi East 4.6 mph - N/A   Scattered Clouds
5:53 PM 87.1 °F 89.9 °F 66.9 °F 51% 30.25 in 10.0 mi Variable 4.6 mph - N/A   Partly Cloudy
6:53 PM 84.9 °F 87.6 °F 66.9 °F 55% 30.25 in 10.0 mi SE 4.6 mph - N/A   Clear
7:53 PM 84.0 °F 86.5 °F 66.9 °F 56% 30.26 in 10.0 mi SE 3.5 mph - N/A   Clear
8:53 PM 80.1 °F 83.2 °F 70.0 °F 71% 30.27 in 10.0 mi Calm Calm - N/A   Clear
9:53 PM 78.1 °F - 69.1 °F 74% 30.27 in 10.0 mi Calm Calm - N/A   Clear
10:53 PM 75.9 °F - 66.9 °F 74% 30.29 in 10.0 mi Calm Calm - N/A   Clear
11:53 PM 75.0 °F - 69.1 °F 82% 30.29 in 10.0 mi Calm Calm - N/A   Clear